Location: Banff
(51.1667°N, 115.5667°W)
Time: 08:17:29
(UTC+00:00)

Envisat - Pass Details

Date: 05 December 2022
Orbit: 763 x 765 km, 98.2° (Epoch: 28 January)

Event Time Altitude Azimuth Distance (km) Brightness Sun altitude
Rises 13:04:03 0° 8° (N) 3,247 6.2 -21.7°
Reaches altitude 10° 13:06:31 10° 0° (N) 2,316 5.4 -21.3°
Enters shadow 13:09:28 28° 333° (NNW) 1,415 4.0 -20.9°
